Location: Marshall
(39.8477°N, 87.1868°W)
Time: 02:39:08
(UTC+00:00)

BlueWalker 3 - Pass Details

Date: 09 May 2026
Orbit: 447 x 456 km, 53.2° (Epoch: 9 June)

Event Time Altitude Azimuth Distance (km) Brightness Sun altitude
Exits shadow 09:31:12 - 292° (WNW) 1,906 4.6 -12.3°
Reaches altitude 10° 09:32:27 10° 306° (NW) 1,573 4.3 -12.1°
Maximum altitude 09:34:30 15° 341° (NNW) 1,322 4.3 -11.8°
Drops below altitude 10° 09:36:33 10° 17° (NNE) 1,577 5.3 -11.4°
Sets 09:39:27 0° 42° (NE) 2,453 7.2 -11.0°
